Location: Brede
(50.9167°N, 0.6000°E)
Time: 16:37:41
(UTC+00:00)

Meteor 2-14 Rocket - Pass Details

Date: 08 August 2020
Orbit: 938 x 956 km, 82.5° (Epoch: 22 September)

Event Time Altitude Azimuth Distance (km) Brightness Sun altitude
Rises 03:11:02 0° 348° (NNW) 3,613 8.0 -11.5°
Reaches altitude 10° 03:13:31 10° 347° (NNW) 2,664 7.2 -11.2°
Maximum altitude 03:19:35 75° 263° (W) 976 4.4 -10.5°
Drops below altitude 10° 03:25:37 10° 180° (S) 2,647 6.4 -9.8°
Sets 03:28:05 0° 178° (S) 3,589 7.1 -9.5°
